• In Uzbekistan
  • List of Countries
  • For 7 days
  • Water Temperature
  • Satellite Maps
  • Weather Map
  • Weather Widgets
  • user-avatar
    Login

    Hourly Weather Seli

    Today, 21 July, Saturday

    Time Temperature Precipitation Wind Pressure Humidity
    00:00 +28°C° 0 mm 3 mps 746 mmHg 55%
    01:00 +27°C° 0 mm 3 mps 746 mmHg 57%
    02:00 +27°C° 0 mm 2 mps 745 mmHg 58%
    03:00 +27°C° 0 mm 2 mps 745 mmHg 59%
    04:00 +26°C° 0 mm 2 mps 745 mmHg 61%
    05:00 +26°C° 0 mm 2 mps 746 mmHg 62%
    06:00 +28°C° 0 mm 2 mps 746 mmHg 57%
    07:00 +29°C° 0 mm 2 mps 746 mmHg 52%
    08:00 +30°C° 0 mm 2 mps 746 mmHg 47%
    09:00 +31°C° 0 mm 2 mps 746 mmHg 45%
    10:00 +33°C° 0 mm 3 mps 746 mmHg 42%
    11:00 +34°C° 0 mm 3 mps 747 mmHg 39%
    12:00 +35°C° 0 mm 3 mps 747 mmHg 39%
    13:00 +35°C° 0 mm 3 mps 747 mmHg 38%
    14:00 +35°C° 0 mm 4 mps 747 mmHg 38%
    15:00 +35°C° 0 mm 3 mps 747 mmHg 38%
    16:00 +35°C° 0 mm 3 mps 747 mmHg 37%
    17:00 +35°C° 0 mm 3 mps 746 mmHg 37%
    18:00 +34°C° 0 mm 3 mps 746 mmHg 40%
    19:00 +33°C° 0 mm 3 mps 746 mmHg 44%
    20:00 +30°C° 0 mm 3 mps 746 mmHg 47%
    21:00 +30°C° 0 mm 3 mps 747 mmHg 49%
    22:00 +29°C° 0 mm 3 mps 747 mmHg 51%
    23:00 +28°C° 0 mm 3 mps 747 mmHg 52%

    Tomorrow, 22 July, Sunday

    Time Temperature Precipitation Wind Pressure Humidity
    00:00 +28°C° 0 mm 3 mps 747 mmHg 52%
    01:00 +28°C° 0 mm 3 mps 747 mmHg 51%
    02:00 +28°C° 0 mm 3 mps 747 mmHg 50%
    03:00 +27°C° 0 mm 3 mps 746 mmHg 51%
    04:00 +27°C° 0 mm 3 mps 746 mmHg 51%
    05:00 +27°C° 0 mm 3 mps 746 mmHg 51%
    06:00 +29°C° 0 mm 3 mps 746 mmHg 47%
    07:00 +30°C° 0 mm 3 mps 746 mmHg 43%
    08:00 +33°C° 0 mm 3 mps 746 mmHg 39%
    09:00 +34°C° 0 mm 3 mps 747 mmHg 36%
    10:00 +35°C° 0 mm 3 mps 747 mmHg 33%
    11:00 +37°C° 0 mm 3 mps 747 mmHg 30%
    12:00 +37°C° 0 mm 4 mps 747 mmHg 28%
    13:00 +38°C° 0 mm 4 mps 747 mmHg 27%
    14:00 +38°C° 0 mm 4 mps 746 mmHg 25%
    15:00 +38°C° 0 mm 4 mps 746 mmHg 25%
    16:00 +38°C° 0 mm 4 mps 746 mmHg 25%
    17:00 +38°C° 0 mm 4 mps 746 mmHg 25%
    18:00 +37°C° 0 mm 4 mps 745 mmHg 28%
    19:00 +35°C° 0 mm 4 mps 745 mmHg 32%
    20:00 +33°C° 0 mm 5 mps 745 mmHg 36%
    21:00 +33°C° 0 mm 5 mps 745 mmHg 37%
    22:00 +32°C° 0 mm 5 mps 745 mmHg 38%
    23:00 +32°C° 0 mm 6 mps 745 mmHg 39%

    Day after tomorrow, 23 July, Monday

    Time Temperature Precipitation Wind Pressure Humidity
    00:00 +30°C° 0 mm 6 mps 745 mmHg 39%
    01:00 +30°C° 0 mm 6 mps 745 mmHg 39%
    02:00 +30°C° 0 mm 6 mps 744 mmHg 39%
    03:00 +30°C° 0 mm 6 mps 744 mmHg 38%
    04:00 +30°C° 0 mm 6 mps 744 mmHg 36%
    05:00 +30°C° 0 mm 5 mps 743 mmHg 35%
    06:00 +32°C° 0 mm 5 mps 744 mmHg 33%
    07:00 +34°C° 0 mm 5 mps 744 mmHg 31%
    08:00 +35°C° 0 mm 4 mps 744 mmHg 29%
    09:00 +37°C° 0 mm 5 mps 744 mmHg 29%
    10:00 +39°C° 0 mm 5 mps 744 mmHg 28%
    11:00 +40°C° 0 mm 6 mps 744 mmHg 28%
    12:00 +41°C° 0 mm 6 mps 744 mmHg 26%
    13:00 +43°C° 0 mm 7 mps 744 mmHg 24%
    14:00 +43°C° 0 mm 7 mps 743 mmHg 23%
    15:00 +43°C° 0 mm 7 mps 743 mmHg 23%
    16:00 +41°C° 0 mm 6 mps 743 mmHg 23%
    17:00 +41°C° 0 mm 6 mps 743 mmHg 24%
    18:00 +39°C° 0 mm 6 mps 743 mmHg 29%
    19:00 +36°C° 0 mm 5 mps 743 mmHg 34%
    20:00 +34°C° 0 mm 5 mps 743 mmHg 39%
    21:00 +33°C° 0 mm 5 mps 743 mmHg 39%
    22:00 +33°C° 0 mm 5 mps 743 mmHg 39%
    23:00 +32°C° 0 mm 4 mps 742 mmHg 40%

    24 July, Tuesday

    Time Temperature Precipitation Wind Pressure Humidity
    00:00 +32°C° 0 mm 4 mps 742 mmHg 42%
    01:00 +30°C° 0 mm 4 mps 742 mmHg 43%
    02:00 +30°C° 0 mm 4 mps 741 mmHg 45%
    03:00 +29°C° 0 mm 4 mps 741 mmHg 47%
    04:00 +29°C° 0 mm 4 mps 741 mmHg 48%
    05:00 +29°C° 0 mm 3 mps 740 mmHg 50%
    06:00 +30°C° 0 mm 4 mps 741 mmHg 45%
    07:00 +32°C° 0 mm 4 mps 741 mmHg 40%
    08:00 +33°C° 0 mm 4 mps 741 mmHg 36%
    09:00 +34°C° 0 mm 4 mps 741 mmHg 38%
    10:00 +34°C° 0 mm 5 mps 741 mmHg 40%
    11:00 +34°C° 0 mm 5 mps 741 mmHg 42%
    12:00 +34°C° 0 mm 6 mps 740 mmHg 43%
    13:00 +34°C° 0 mm 6 mps 740 mmHg 43%
    14:00 +35°C° 0 mm 7 mps 740 mmHg 44%
    15:00 +34°C° 0 mm 7 mps 740 mmHg 46%
    16:00 +34°C° 0 mm 7 mps 740 mmHg 49%
    17:00 +33°C° 0 mm 7 mps 740 mmHg 52%
    18:00 +32°C° 0 mm 7 mps 741 mmHg 57%
    19:00 +30°C° 0 mm 6 mps 741 mmHg 63%
    20:00 +29°C° 0 mm 6 mps 741 mmHg 69%
    21:00 +28°C° 0 mm 6 mps 741 mmHg 71%
    22:00 +28°C° 0 mm 6 mps 741 mmHg 74%
    23:00 +27°C° 0 mm 6 mps 742 mmHg 76%

    25 July, Wednesday

    Time Temperature Precipitation Wind Pressure Humidity
    00:00 +27°C° 0 mm 5 mps 742 mmHg 78%
    01:00 +26°C° 0 mm 5 mps 741 mmHg 80%
    02:00 +26°C° 0 mm 5 mps 741 mmHg 82%
    03:00 +25°C° 0 mm 4 mps 741 mmHg 83%
    04:00 +25°C° 0 mm 4 mps 741 mmHg 85%
    05:00 +25°C° 0 mm 4 mps 741 mmHg 86%
    06:00 +26°C° 0.1 mm 3 mps 742 mmHg 79%
    07:00 +27°C° 0.1 mm 3 mps 742 mmHg 73%
    08:00 +28°C° 0.1 mm 2 mps 742 mmHg 66%
    09:00 +29°C° 0 mm 3 mps 743 mmHg 61%
    10:00 +30°C° 0 mm 3 mps 743 mmHg 57%
    11:00 +31°C° 0 mm 3 mps 743 mmHg 52%
    12:00 +33°C° 0 mm 4 mps 743 mmHg 51%
    13:00 +33°C° 0 mm 4 mps 743 mmHg 51%
    14:00 +33°C° 0 mm 4 mps 743 mmHg 50%
    15:00 +33°C° 0 mm 4 mps 743 mmHg 52%
    16:00 +33°C° 0 mm 4 mps 743 mmHg 53%
    17:00 +32°C° 0 mm 4 mps 743 mmHg 55%
    18:00 +30°C° 0 mm 3 mps 743 mmHg 58%
    19:00 +30°C° 0 mm 3 mps 743 mmHg 61%
    20:00 +29°C° 0 mm 2 mps 743 mmHg 63%
    21:00 +28°C° 0 mm 2 mps 744 mmHg 64%
    22:00 +28°C° 0 mm 2 mps 744 mmHg 64%
    23:00 +28°C° 0 mm 2 mps 744 mmHg 64%

    26 July, Thursday

    Time Temperature Precipitation Wind Pressure Humidity
    00:00 +27°C° 0 mm 2 mps 744 mmHg 63%
    01:00 +27°C° 0 mm 2 mps 743 mmHg 63%
    02:00 +27°C° 0 mm 2 mps 743 mmHg 62%
    03:00 +27°C° 0 mm 2 mps 743 mmHg 62%
    04:00 +26°C° 0 mm 1 mps 743 mmHg 61%
    05:00 +26°C° 0 mm 1 mps 743 mmHg 61%
    06:00 +27°C° 0 mm 1 mps 744 mmHg 58%
    07:00 +28°C° 0 mm 1 mps 744 mmHg 54%
    08:00 +29°C° 0 mm 1 mps 744 mmHg 51%
    09:00 +30°C° 0 mm 1 mps 744 mmHg 48%
    10:00 +31°C° 0 mm 2 mps 745 mmHg 46%
    11:00 +32°C° 0 mm 2 mps 745 mmHg 44%
    12:00 +33°C° 0 mm 3 mps 745 mmHg 45%
    13:00 +33°C° 0 mm 3 mps 745 mmHg 46%
    14:00 +33°C° 0 mm 3 mps 745 mmHg 47%
    15:00 +33°C° 0 mm 3 mps 745 mmHg 50%
    16:00 +31°C° 0 mm 3 mps 745 mmHg 53%
    17:00 +31°C° 0 mm 3 mps 745 mmHg 55%
    18:00 +30°C° 0 mm 3 mps 745 mmHg 59%
    19:00 +29°C° 0 mm 3 mps 745 mmHg 63%
    20:00 +28°C° 0 mm 2 mps 745 mmHg 67%
    21:00 +28°C° 0 mm 2 mps 745 mmHg 68%
    22:00 +28°C° 0 mm 2 mps 745 mmHg 69%
    23:00 +27°C° 0 mm 2 mps 746 mmHg 69%
    Show more